Hourly Data Report for May 24, 2022

DRYDEN REGIONAL
ONTARIO
Current Station Operator: NAVCAN

49°49'39.000" N
92°44'39.000" W
412.70 m
6032125
71527
YHD

Download Data

Hourly Data (May 2022)
Hourly Data Report for May 24, 2022
TIME
LST
Temp Definition
°C
Dew Point Definition
°C
Rel Hum Definition
%
Precip. Amount Definition
mm

Wind Dir Definition
10's deg

Wind Spd Definition
km/h
Visibility Definition
km
Stn Press Definition
kPa
Hmdx Definition


Wind Chill Definition


Weather Definition


00:00 10.8 1.4 52 0.0 23 21 16.1 97.04     LegendNANA
01:00 9.7 3.7 66 0.0 20 17 16.1 97.00     LegendNANA
02:00 9.6 4.4 70 0.0 21 17 16.1 96.99     LegendNANA
03:00 8.7 4.2 73 0.0 20 13 16.1 96.99     LegendNANA
04:00 7.8 4.6 80 0.0 20 15 16.1 96.98     LegendNANA
05:00 7.8 5.3 84 0.0 20 13 16.1 97.00     LegendNANA
06:00 9.6 5.8 77 0.0 20 17 16.1 97.05     LegendNANA
07:00 12.2 6.7 69 0.0 22 17 16.1 97.07     LegendNANA
08:00 14.1 6.9 62 0.0 24 18 16.1 97.07     LegendNANA
09:00 15.0 7.1 59 0.0 26 26 16.1 97.06     LegendNANA
10:00 16.4 7.3 55 0.0 24 22 16.1 97.06     LegendNANA
11:00 18.4 6.8 46 0.0 23 28 16.1 97.06     LegendNANA
12:00 18.6 6.0 43 0.0 25 26 16.1 97.08     LegendNANA
13:00 19.9 5.0 37 0.0 23 32 16.1 97.07     LegendNANA
14:00 20.3 4.4 35 0.0 22 32 16.1 97.07     LegendNANA
15:00 20.4 4.2 34 0.0 27 34 16.1 97.06     LegendNANA
16:00 20.5 3.9 33 0.0 25 30 16.1 97.06     LegendNANA
17:00 20.2 4.1 34 0.0 24 26 16.1 97.07     LegendNANA
18:00 19.8 3.6 34 0.0 24 30 16.1 97.07     LegendNANA
19:00 18.9 4.0 37 0.0 24 21 16.1 97.10     LegendNANA
20:00 16.8 4.1 43 0.0 23 11 16.1 97.15     LegendNANA
21:00 15.3 4.1 47 0.0 21 11 16.1 97.22     LegendNANA
22:00 13.9 3.4 49 0.0 19 11 16.1 97.24     LegendNANA
23:00 13.4 3.0 49 0.0 22 9 16.1 97.24     LegendNANA

Notes on Data Quality.

Legend

  • E = Estimated
  • M = Missing
  • NA = Not Available*
  • [empty] = Indicates an unobserved value
Date modified: